Location: Julian California
(33.0790°N, 116.6010°W)
Time: 21:21:09
(UTC-07:00)

Cosmos 540 Rocket - Pass Details

Date: 12 July 2018
Orbit: 741 x 753 km, 74.1° (Epoch: 22 July)

Event Time Altitude Azimuth Distance (km) Brightness Sun altitude
Rises 22:56:03 0° 348° (NNW) 3,180 7.8 -28.5°
Reaches altitude 10° 22:58:28 10° 353° (N) 2,252 6.7 -28.8°
Enters shadow 23:02:25 46° 29° (NNE) 987 4.1 -29.2°
